Location: Oshawa
(43.9000°N, 78.8670°W)
Time: 21:56:28
(UTC-04:00)

Altair - Visible Passes

Search period start: 27 May 2015 00:00
Search period end: 06 June 2015 00:00
Orbit: 1501 x 1683 km, 47.2° (Epoch: 26 May)

Date Brightness Start Highest point End Pass type
(mag) Time Alt. Az. Time Alt. Az. Time Alt. Az.
27 May 8.0 01:33:53 10° WNW 01:42:33 36° SW 01:43:20 35° SW visible
27 May 7.5 23:03:16 10° WNW 23:13:21 87° SSW 23:20:55 19° ESE visible
28 May 7.9 01:08:36 10° WNW 01:17:30 39° SW 01:18:53 37° SSW visible
28 May 7.6 22:38:03 10° WNW 22:48:10 90° SSW 22:56:32 15° ESE visible
29 May 7.9 00:43:19 10° WNW 00:52:24 42° SW 00:54:31 38° SSW visible
29 May 7.6 22:12:49 10° WNW 22:22:58 88° NNE 22:32:14 12° ESE visible
30 May 7.9 00:18:04 10° WNW 00:27:20 46° SW 00:30:13 37° S visible
30 May 9.2 02:27:21 10° WSW 02:28:12 11° WSW 02:28:12 11° WSW visible
30 May 7.7 21:47:36 10° WNW 21:57:46 85° NNE 22:07:34 10° ESE visible
30 May 7.8 23:52:49 10° WNW 00:02:14 49° SW 00:05:59 34° S visible
31 May 9.1 02:01:01 10° W 02:03:58 13° WSW 02:03:58 13° WSW visible
31 May 7.8 21:22:22 10° WNW 21:32:33 83° NNE 21:42:24 10° ESE visible
31 May 7.8 23:27:34 10° WNW 23:37:08 52° SW 23:41:47 31° SSE visible
01 Jun 9.0 01:35:05 10° W 01:39:47 15° WSW 01:39:47 15° WSW visible
01 Jun 7.8 23:02:20 10° WNW 23:12:01 56° SW 23:17:39 26° SSE visible
02 Jun 8.9 01:09:21 10° W 01:15:19 17° SW 01:15:38 17° SW visible
02 Jun 7.8 22:37:06 10° WNW 22:46:55 60° SW 22:53:34 22° SE visible
03 Jun 8.8 00:43:44 10° W 00:50:18 19° SW 00:51:34 19° SW visible
03 Jun 7.8 22:11:52 10° WNW 22:21:47 63° SSW 22:29:32 17° SE visible
04 Jun 8.7 00:18:13 10° W 00:25:16 22° SW 00:27:31 20° SW visible
04 Jun 7.8 21:46:39 10° WNW 21:56:39 67° SSW 22:05:32 13° SE visible
04 Jun 8.7 23:52:45 10° W 00:00:14 24° SW 00:03:32 20° SSW visible
05 Jun 7.8 21:21:26 10° WNW 21:31:29 71° SSW 21:41:12 10° SE visible
05 Jun 8.7 23:27:19 10° WNW 23:35:11 26° SW 23:39:35 19° SSW visible
